Location: Kosice
(0.0000°N, 21.2500°E)
Time: 05:40:11
(UTC+01:00)

SL-08 RB Rocket - Pass Details

Date: 24 January 2021
Orbit: 647 x 683 km, 97.8° (Epoch: 04 March)

Event Time Altitude Azimuth Distance (km) Brightness Sun altitude
Rises 19:12:40 0° 165° (SSE) 3,025 7.2 -20.1°
Reaches altitude 10° 19:14:55 10° 163° (SSE) 2,104 6.3 -20.7°
Maximum altitude 19:19:30 72° 78° (ENE) 703 3.5 -21.7°
Enters shadow 19:21:49 29° 0° (N) 1,223 4.8 -22.3°
